Tanna Airport
NVVW : now visible

Airfield :











YOU CAN JOIN US ON...

 
LOGIN :

Register | Disclaimer

   EN    FR    IT 

 









Legend :    VFR   Marginal VFR   IFR   Intensive IFR   Very Intensive IFR
Visi :
Ceiling :
>= 8 km
>= 3000ft
5 to 8 km
1000 to 3000 ft
1500m to 5 km
500 to 1000 ft
800 to 1500m
200 to 500 ft
< 800m
< 200 ft
Symbols :   Thunderstorms  Fog  Heavy snow  Heavy precipitations  Wind > 20 kt






- Airport Elevation : 19 ft
- IATA code : TAH


NVVW - Tanna

CURRENT METAR :
  • 252200Z 15006KT 9999 BKN022 29/25 Q1003

EXPIRED METARs :
  • 252100Z 14005KT 9999 BKN020 28/25 Q1003

TAF TAF NVVW
Valid from the 25 at 18:00 until the 26 at 18:00 UTC


251600Z 2518/2618 VRB03KT 9999 FEW010 BKN020 OVC100 INTER 2518/2524 7000 -TSRA FEW008 BKN017 FEW022CB OVC090
NFFF FIR / Oceania



MET'MAP, your aeronautical weather chart ! - Copyright ORBIFLY December 2007 - Disclaimer

ORBIFLY MET'MAP TEAM :

Programming & Development : Alexandra Zaïnal
Concept & original design : Baudouin d'Aumeries
Assistance for programming : Marc-Olivier Méhu
Technical & hardware support : Manuel Goepfert

Contact : metmap@orbifly.com




SOURCES & CREDITS :

   NOAA       Earth
Advisory